If you wish to contribute or participate in the discussions about articles you are invited to join SKYbrary as a registered user

 Actions

Viru Viru International Airport

From SKYbrary Wiki

SLVR
Airport
ICAO: SLVR – IATA: VVI
Summary
Name Viru Viru International Airport
Region South America and Caribbean
Territory Bolivia BO.gif
Location Santa Cruz de la Sierra, Santa Cruz
Serving Santa Cruz
Elevation 373.075 m
1,224 ft
1,224 ft373.075 m
Type medium airport
Coordinates 17° 38' 41.12" S, 63° 8' 7.31" W
Runways
Designator Length Width Surface ROPS
16/34 3500 m11,482.94 ft
45 m147.638 ft
CON yes/yes


METAR
Observation SLVR 242300Z 35013KT 7000 FEW020 24/18 Q1008
Station Viru-Viru
Date/Time 24 June 2019 23:00:00
Wind direction 350°
Wind speed 13 kts
Lowest cloud amount few clouds
Temperature 24°C
Dew point 18°C
Humidity 69%
QNH 1008 hPa
Weather condition n/a

International Airport serving Santa Cruz de la Sierra, Bolivia.

Climatology

Tropical Savanna climate (Köppen climate classification Aw).

Maps

Terrain

Loading map...

Airport Layout

Loading map...


Accidents & Serious Incidents at or in vicinity of SLVR

None on SKYbrary